This demonstration page uses our WeatherBlox Daily Observations layout. Learn more.

Left ArrowRight Arrow

36.17497, -115.13722

Hourly Observations for July 4, 2020

Temp ( °F °C ) Dew Point ( °F °C ) Humidity (%) Winds ( mph kmh ) Pressure ( in mb ) Visibility ( mi km ) Precip ( " mm )
12:53 am 00:53 Clear 88 31.1 23 -5 9 9 SSW 8 13 29.88 1012 10 16 0.00 0.00
1:53 am 01:53 Clear 83 28.3 26 -3.3 12 12 W 7 11 29.88 1012 10 16 0.00 0.00
2:53 am 02:53 Clear 82 27.8 25 -3.9 12 12 NW 8 13 29.88 1012 10 16 0.00 0.00
3:53 am 03:53 Clear 80 26.7 24 -4.4 13 13 W 3 6 29.89 1012 10 16 0.00 0.00
4:53 am 04:53 Clear 77 25 27 -2.8 16 16 Calm 29.91 1013 10 16 0.00 0.00
5:53 am 05:53 Sunny 76 24.4 25 -3.9 15 15 NNW 9 15 29.92 1013 10 16 0.00 0.00
6:53 am 06:53 Sunny 78 25.6 29 -1.7 16 16 NW 5 7 29.94 1014 10 16 0.00 0.00
7:53 am 07:53 Sunny 86 30 31 -0.6 14 14 W 5 7 29.94 1014 10 16 0.00 0.00
8:53 am 08:53 Sunny 91 32.8 23 -5 8 8 NNW 7 11 29.95 1014 10 16 0.00 0.00
9:53 am 09:53 Sunny 94 34.4 23 -5 8 8 E 3 6 29.95 1014 10 16 0.00 0.00
10:53 am 10:53 Sunny 96 35.6 27 -2.8 8 8 VRB 5 7 29.95 1014 10 16 0.00 0.00
11:53 am 11:53 Sunny 100 37.8 32 0 9 9 VRB 6 9 29.93 1014 10 16 0.00 0.00
12:53 pm 12:53 Sunny 101 38.3 36 2.2 10 10 Calm 29.90 1012 10 16 0.00 0.00
1:53 pm 13:53 Sunny 104 40 33 0.6 8 8 SSE 9 15 29.87 1011 10 16 0.00 0.00
2:53 pm 14:53 Sunny 106 41.1 32 0 8 8 S 15 24 29.84 1011 10 16 0.00 0.00
3:53 pm 15:53 Sunny 106 41.1 30 -1.1 7 7 SW 14 22 29.82 1010 10 16 0.00 0.00
4:53 pm 16:53 Sunny 106 41.1 29 -1.7 7 7 S 12 19 29.80 1009 10 16 0.00 0.00
5:53 pm 17:53 Sunny 106 41.1 31 -0.6 7 7 SW 14 22 29.78 1009 10 16 0.00 0.00
6:53 pm 18:53 Sunny 104 40 33 0.6 8 8 SW 16 26 29.78 1009 10 16 0.00 0.00
7:53 pm 19:53 Sunny 102 38.9 34 1.1 9 9 WSW 10 17 29.78 1009 10 16 0.00 0.00
8:53 pm 20:53 Clear 99 37.2 34 1.1 10 10 SW 10 17 29.79 1009 10 16 0.00 0.00
9:53 pm 21:53 Clear 98 36.7 34 1.1 11 11 W 13 20 29.80 1009 10 16 0.00 0.00
10:53 pm 22:53 Clear 95 35 31 -0.6 10 10 Calm 29.81 1010 10 16 0.00 0.00
11:53 pm 23:53 Clear 92 33.3 31 -0.6 11 11 Calm 29.81 1010 10 16 0.00 0.00

Powered by AerisWeather